Regional Weather Roundup
Issued by NWS State College, PA

Home | Current Version | Previous Version | Text Only | Print | Product List | Glossary On
Versions: 1 2 3 4 5 6 7 8 9 10 11 12 13 14 15 16 17 18 19 20 21 22 23 24 25 26 27 28 29 30 31 32 33 34 35 36 37 38 39 40 41 42 43 44 45 46 47 48 49 50
000
ASUS41 KCTP 290110
RWRCTP

REGIONAL WEATHER ROUNDUP
NATIONAL WEATHER SERVICE STATE COLLEGE PA
900 PM EDT FRI APR 28 2017

Note: "fair" indicates few or no clouds below 12,000 feet with no
significant weather and/or obstructions to visibility.

* = STATION THAT DOES NOT REPORT PRECIPITATION /E.G. RAIN...SNOW...ETC/
    THUNDER OR FOG.

PAZ002>004-007>009-013>016-020>023-029>032-290200-
WESTERN PENNSYLVANIA

CITY           SKY/WX    TMP DP  RH WIND       PRES   REMARKS
ERIE           CLOUDY    60  47  61 S13       30.02R
MEADVILLE      CLOUDY    57  50  77 VRB3      30.09R
FRANKLIN*      CLOUDY    57  45  62 NW7       30.12R
NEW CASTLE     CLOUDY    62  48  60 NE9       30.06R
BEAVER COUNTY  CLOUDY    63  48  59 N7        30.05R
BUTLER*        CLOUDY    63  46  55 NE5       30.05R
PITTSBURGH INT LGT RAIN  66  47  50 E6        30.00R
PITTSBURGH     CLOUDY    65  43  44 E8        29.98F
INDIANA*       CLOUDY    63  46  55 CALM      30.06F
LATROBE        CLOUDY    64  48  55 N7        30.04R
WASHINGTON CO* CLOUDY    64  48  55 NE6       30.00F
$$

PAZ004>006-010>012-017>019-024>028-033>037-041-042-045-046-049>053-290200-
CENTRAL PENNSYLVANIA

CITY           SKY/WX    TMP DP  RH WIND       PRES   REMARKS
BRADFORD       CLOUDY    54  51  90 S6        30.04F
DUBOIS         CLOUDY    60  41  49 NE7       30.03S
CLEARFIELD     CLOUDY    65  37  35 CALM      30.06R
JOHNSTOWN      MOCLDY    64  43  46 NE8       30.04S
ALTOONA        CLOUDY    69  51  52 NE3       30.03F
STATE COLLEGE  CLEAR     68  41  37 CALM      30.02F
WILLIAMSPORT   NOT AVBL
SELINSGROVE    PTCLDY    62  54  74 W3        30.01F
FT INDIANTOWN  PTCLDY    67  50  55 NE3       30.02S
CAPITAL CITY   CLEAR     72  52  49 CALM      30.00F
HARRISBURG     MOCLDY    68  58  70 SE3       30.00S
YORK           CLEAR     66  59  78 SE5       30.02R
$$

PAZ038>040-043-044-047-048-054-055-060>062-067>071-290200-
EASTERN PENNSYLVANIA

CITY           SKY/WX    TMP DP  RH WIND       PRES   REMARKS
SCRANTON       PTCLDY    67  43  41 S3        30.06R
MOUNT POCONO   CLEAR     64  37  36 NW5       30.09R
ALLENTOWN      PTCLDY    67  46  47 CALM      30.03R
QUAKERTOWN*    PTCLDY    66  48  52 MISG      30.05R
READING        PTCLDY    68  52  56 S5        30.02R
LANCASTER      CLEAR     70  54  56 VRB3      30.04R
COATESVILLE    CLEAR     72  55  56 CALM      30.07R
POTTSTOWN      CLEAR     67  51  56 CALM      30.05R
BLUE BELL      PTCLDY    66  55  68 SW3       30.05R
DOYLESTOWN     PTCLDY    67  51  56 CALM      30.03R
WILLOW GROVE   NOT AVBL
NORTH PHILA    CLEAR     77  55  46 SW5       30.05R
PHILADELPHIA   MOCLDY    74  58  57 S8        30.04R
$$




USA.gov is the U.S. government's official web portal to all federal, state and local government web resources and services.